RH
100 100 100 100 100 100 100 94 96 100 94 84 84 95 98 96 92 84 80 73 68 67 73 80 81 79 87 90 84 82 84 85 85 79 71 68 65 65 67 69 67 63 60 57
99 98 100 100 94 100 97 97 92 94 95 98 100 100 100 97 88 77 75 76 76 73 67 69 76 78 78 77 79 82 84 83 80 77 75 72 71 66 61 62 64 66 59 58
97 93 81 88 100 99 100 100 98 100 100 96 94 97 92 86 85 85 80 72 70 69 75 78 84 98 100 100 100 100 98 96 88 81 77 74 70 68 68 66 64 61 56 52
100 100 99 97 98 100 100 100 100 100 100 99 97 92 88 82 84 84 77 74 83 84 83 94 99 100 100 100 99 90 81 78 81 83 77 71 71 79 75 68 65 62 59 52
100 100 100 99 100 100 100 100 99 94 94 89 87 93 100 95 89 86 91 90 89 89 85 83 86 86 84 84 93 94 85 74 69 71 75 78 78 71 68 66 58 45 41 39
100 95 91 93 91 87 91 89 83 81 83 88 92 90 88 84 89 89 88 90 92 92 91 91 89 82 72 72 71 71 68 64 60 58 60 60 57 53 49 45 44 43 40 37
100 99 95 94 96 94 86 90 84 82 83 83 90 94 89 84 85 87 86 87 86 82 76 76 76 74 70 64 62 68 74 72 65 58 53 50 48 46 44 39 35 32 28 25
90 85 76 82 82 79 78 86 93 88 90 90 93 94 88 78 69 67 68 69 70 72 82 83 77 64 60 58 55 54 53 52 51 49 47 40 37 33 26 23 21 20 19 19
91 87 79 74 70 74 83 87 82 74 66 61 60 61 64 67 73 83 88 88 81 67 60 56 55 54 54 56 55 50 45 40 33 27 23 22 22 21 20 19 18 17 15 15
90 92 88 84 82 76 69 65 61 54 56 60 64 71 82 88 86 78 74 72 65 63 63 59 53 48 43 36 31 28 25 23 22 20 19 18 16 15 15 15 14 13 13 13
79 77 71 65 59 55 59 64 67 72 78 83 84 79 76 76 74 69 67 67 64 54 43 40 36 31 27 24 22 20 17 16 16 16 15 14 14 14 14 14 14 14 13 12
80 77 82 84 87 90 97 98 93 87 80 77 75 69 67 68 69 64 51 41 39 34 29 27 23 19 17 17 17 16 15 15 15 14 13 13 13 13 13 13 13 13 12 12
96 95 99 99 95 94 97 96 88 82 80 76 72 66 55 44 38 36 29 25 23 20 19 18 17 16 16 15 14 14 14 14 15 16 17 16 16 15 15 14 15 15 15 14
80 80 79 80 78 77 76 75 73 71 69 57 40 32 30 27 24 21 19 19 19 18 17 16 15 14 14 15 15 16 16 16 16 16 16 16 17 17 17 16 14 14 14 14
58 57 56 56 58 59 53 42 33 30 27 24 21 20 19 19 19 19 18 17 16 16 16 16 15 15 14 14 14 14 14 13 13 14 13 13 13 13 12 13 14 13 12 13
25 25 25 24 24 23 22 20 20 19 19 20 20 19 18 17 16 16 17 17 16 16 15 14 14 13 13 14 14 15 15 15 13 13 12 12 12 11 11 11 11 12 12 14
21 21 20 20 20 21 20 20 19 19 18 17 17 16 16 16 16 16 16 15 14 14 13 14 14 15 16 16 16 15 13 11 10 10 9 9 9 9 10 10 10 11 11 12
20 20 19 18 17 17 16 17 17 17 17 16 15 15 15 15 14 13 14 14 13 13 13 15 15 15 15 13 12 11 8 7 7 7 7 7 7 7 7 8 8 8 8 8
16 16 16 16 16 16 16 16 15 15 15 14 14 13 13 12 13 13 13 13 12 14 14 15 16 14 11 10 8 7 6 6 6 6 6 6 6 6 5 5 5 5 5 5
15 15 15 15 15 14 14 14 14 13 13 12 12 12 11 11 12 12 12 13 13 14 14 12 11 8 7 7 7 6 5 5 5 5 5 5 4 4 4 4 4 5 5 5
17 17 17 16 15 14 14 13 12 12 11 11 11 11 11 11 11 12 12 13 13 12 10 7 6 6 6 6 5 5 5 4 4 4 4 4 4 4 4 4 4 4 5 5
15 15 14 14 12 12 12 11 10 9 9 10 11 12 11 11 11 11 12 12 9 8 7 6 6 6 6 6 5 6 5 5 4 4 4 4 4 4 4 4 4 5 5 5
18 18 17 16 14 13 12 12 10 10 10 11 11 11 11 11 11 12 11 10 8 6 6 6 7 7 7 5 6 6 5 5 5 4 4 4 4 4 4 5 4 5 5 5
13 13 13 12 12 12 12 12 10 12 11 11 11 11 11 11 11 12 8 7 6 6 7 7 7 8 7 6 6 5 5 5 5 5 5 4 4 4 4 5 4 4 4 4
9 9 9 9 10 10 10 11 11 11 11 11 11 12 11 11 9 8 7 6 6 7 8 8 8 8 7 6 6 5 5 5 5 5 5 5 5 5 5 5 5 5 5 5
7 7 7 8 8 9 9 10 10 11 11 11 11 11 9 8 7 6 7 8 8 8 8 9 8 8 7 6 6 6 6 6 5 5 5 5 5 5 5 5 5 5 5 5
6 6 6 6 7 7 8 9 9 9 9 9 7 7 7 7 7 7 8 10 10 9 10 10 9 8 8 7 6 6 6 6 5 5 5 5 5 5 6 5 5 5 5 5
Wind_Speed
62 61 60 58 59 61 62 63 63 65 67 68 67 68 70 72 73 73 73 75 77 77 78 80 81 81 79 79 79 79 79 80 81 82 84 86 87 89 91 95 97 97 98 97
61 60 61 62 61 62 65 67 68 68 69 71 71 73 75 77 78 79 80 81 81 83 83 82 80 80 80 80 81 83 85 87 88 91 93 95 97 100 101 102 103 104 105 104
61 63 64 60 65 69 70 69 71 70 75 76 77 79 81 82 83 84 86 88 89 85 82 80 80 82 84 86 88 91 93 96 98 100 103 105 105 107 108 108 106 107 108 108
64 66 63 65 68 70 69 70 71 74 78 79 81 83 84 85 87 89 89 87 83 83 85 85 86 89 92 95 98 101 104 106 108 109 110 110 112 112 112 112 113 114 114 115
65 66 66 66 69 72 74 76 78 80 82 84 85 86 88 90 91 89 88 89 89 90 91 93 95 98 101 105 107 109 111 114 117 117 118 118 118 118 120 119 119 118 119 119
69 70 71 72 76 79 82 80 86 87 87 89 90 91 92 92 92 93 94 95 96 98 99 101 104 107 109 111 113 117 119 118 118 119 121 121 122 122 122 124 125 126 124 121
75 77 76 79 82 85 86 84 87 87 88 89 90 91 93 95 97 98 99 101 103 105 107 109 112 114 116 117 117 119 120 123 125 125 126 128 129 130 130 128 124 122 119 117
82 82 81 84 85 87 88 87 88 90 91 93 96 98 99 100 102 103 105 107 109 112 114 117 118 118 119 121 123 125 126 128 129 130 129 127 125 124 123 121 119 117 113 110
85 86 87 88 90 91 92 92 92 94 97 98 98 99 101 105 107 109 112 115 116 118 121 121 122 124 127 127 128 128 127 126 125 124 123 121 119 116 114 112 110 108 105 102
91 91 94 94 95 97 99 100 101 100 100 101 103 107 111 114 116 117 118 120 122 122 123 125 125 124 124 123 123 122 121 119 117 114 112 111 108 105 103 102 102 101 99 98
97 98 99 101 102 101 100 101 103 105 108 111 115 117 117 118 120 121 121 122 123 122 121 120 121 120 119 116 114 112 110 107 105 103 102 101 101 98 96 95 93 92 91 89
99 102 103 102 104 107 110 112 114 117 117 118 121 120 120 120 120 121 119 118 118 119 117 115 112 110 107 105 103 102 100 98 95 94 93 92 90 89 87 86 85 83 83 82
109 110 111 114 116 117 119 119 119 122 122 121 121 122 121 118 115 115 113 110 109 107 105 103 102 100 97 95 94 92 90 88 86 84 84 84 83 82 82 79 77 77 76 75
117 118 118 120 119 117 117 117 118 120 121 120 117 115 113 111 107 104 101 100 99 98 96 93 91 89 87 86 85 85 84 83 82 83 83 82 81 80 80 80 78 77 79 79
112 112 112 113 113 115 114 113 111 110 109 107 104 102 100 99 97 96 94 92 90 88 86 86 85 85 85 85 87 87 87 87 86 87 88 87 86 85 85 85 87 86 85 85
99 99 99 99 99 99 99 98 98 98 98 98 97 95 93 90 88 87 86 84 84 84 86 87 87 87 86 86 86 85 87 89 89 89 89 89 89 88 87 87 86 85 85 85
90 91 91 92 93 94 93 93 92 91 90 89 87 86 85 84 84 85 85 86 86 85 85 86 86 84 85 86 85 88 90 90 90 90 89 88 87 85 85 84 85 83 81 82
85 85 84 84 84 84 84 85 86 86 87 87 87 87 87 86 86 85 84 84 83 83 82 82 82 82 85 86 85 86 86 86 85 85 85 84 84 83 83 82 82 81 80 79
79 80 80 82 83 84 86 86 87 87 87 87 86 86 85 83 82 81 79 79 78 77 78 78 82 84 84 83 81 80 79 79 78 77 76 76 77 76 75 75 74 73 72 72
83 83 84 85 87 87 87 86 86 85 84 83 81 80 78 76 74 75 75 73 71 74 78 78 79 77 73 73 72 72 71 70 70 69 69 69 69 68 67 67 66 66 66 66
81 82 83 84 84 84 84 83 81 79 77 76 74 73 72 71 69 67 68 70 70 73 74 71 68 67 65 65 64 64 63 62 61 61 61 61 60 60 60 59 58 59 60 60
75 76 77 77 76 75 74 74 73 71 69 67 67 67 65 63 63 64 67 70 68 66 66 64 62 60 59 60 58 58 56 57 58 57 57 56 55 54 54 54 54 54 54 55
76 77 78 78 77 76 75 73 71 69 67 65 63 62 61 63 64 67 67 65 65 61 58 57 56 55 55 56 53 53 53 53 53 53 52 51 51 50 50 50 50 50 50 51
74 74 74 73 72 71 70 68 65 64 63 62 61 61 62 64 64 66 63 60 57 55 53 52 50 50 52 49 49 48 48 49 48 47 46 46 45 45 46 47 47 47 47 47
66 66 65 65 66 64 63 61 60 59 60 60 61 61 62 63 61 57 57 55 51 48 47 48 47 46 46 44 44 43 43 43 43 44 44 42 41 40 40 40 41 43 43 44
58 58 58 59 60 59 58 58 57 56 59 61 60 60 58 56 54 50 48 48 46 44 43 44 45 43 43 41 39 39 39 40 40 38 37 37 38 38 37 38 38 39 40 40
53 54 54 55 55 55 54 55 56 54 56 57 53 50 50 48 46 44 41 40 42 41 41 40 41 41 39 39 37 36 36 36 35 34 33 33 33 34 34 35 35 35 34 35
Wind_Direction
241 245 249 250 253 257 258 259 259 259 260 260 261 262 262 265 268 270 272 274 275 275 274 274 274 274 274 274 274 274 274 274 274 274 275 275 276 276 277 277 278 278 279 278
244 245 248 251 258 261 261 261 261 260 261 260 263 264 264 267 270 273 276 276 276 276 276 273 272 273 272 272 273 274 275 275 276 276 277 277 278 279 279 279 279 277 278 277
247 250 252 255 258 257 258 259 260 261 261 264 264 265 267 270 272 273 275 276 277 276 274 274 275 274 274 274 274 274 275 277 278 278 279 279 280 280 280 280 279 278 278 278
250 251 253 254 255 256 257 258 259 261 263 265 267 269 271 272 273 275 277 277 274 274 275 274 274 274 274 275 275 277 277 278 278 279 279 279 279 279 279 279 279 279 278 278
254 255 256 257 256 257 258 259 262 263 265 267 269 270 271 272 273 274 274 274 274 274 274 274 274 275 276 276 276 277 278 278 278 278 279 279 278 278 278 277 277 277 277 277
255 256 258 259 260 261 262 264 266 268 270 271 272 273 273 274 274 275 275 275 275 275 276 276 276 277 278 278 277 277 278 278 279 279 279 279 279 278 278 279 279 279 279 278
257 257 259 260 262 264 266 266 269 271 271 272 272 273 274 275 275 275 275 275 276 276 277 278 279 280 280 280 279 279 278 278 279 279 279 279 279 279 279 278 278 278 278 277
257 259 260 261 262 264 266 267 269 270 271 272 272 273 273 274 275 276 277 277 277 279 280 280 280 280 280 279 279 279 278 278 279 279 279 279 278 278 279 278 278 277 277 276
263 263 263 264 265 267 267 268 269 270 271 272 273 273 275 278 278 279 279 280 280 280 280 280 280 280 281 280 280 280 280 280 279 279 279 279 278 278 277 277 277 277 276 275
264 264 264 265 266 267 269 270 270 272 273 275 277 279 280 280 280 280 280 280 281 282 281 281 281 281 281 280 280 280 280 279 279 279 279 278 277 277 276 276 275 275 275 274
265 266 268 270 270 271 273 275 277 279 279 279 279 280 280 281 281 282 282 282 282 282 282 282 281 281 281 280 280 280 279 279 278 278 278 277 277 277 276 276 275 275 275 273
272 273 273 274 275 276 277 278 278 279 279 280 281 281 281 281 281 282 282 281 281 281 281 280 280 280 280 280 280 279 279 279 279 278 278 277 277 276 275 274 274 273 272 272
272 272 273 273 274 276 277 279 279 279 279 280 280 280 281 281 281 280 280 280 279 280 280 280 280 280 280 280 279 278 278 278 278 277 277 275 274 273 272 271 271 272 271 270
271 272 273 274 275 276 277 277 278 278 279 280 280 279 279 279 280 280 280 280 280 280 280 280 280 280 279 279 278 278 277 276 276 275 274 273 273 271 272 272 271 270 270 270
272 273 274 274 275 276 277 277 277 277 278 278 279 279 280 280 281 281 281 281 281 281 281 280 280 279 279 279 278 278 278 277 275 274 273 272 271 270 269 269 270 271 271 271
274 274 274 274 274 275 275 275 276 277 278 279 280 281 281 281 281 281 282 281 281 280 280 280 280 281 281 280 279 279 278 277 276 275 274 273 272 272 271 271 270 270 270 270
274 275 275 275 276 277 278 279 279 280 280 280 280 280 281 281 281 281 281 281 281 281 281 281 281 281 280 280 281 281 279 278 276 276 275 274 273 273 272 271 271 270 269 269
276 276 277 278 278 278 279 280 280 280 280 280 280 281 281 281 280 280 281 281 281 281 281 281 281 281 282 282 280 279 278 277 276 275 274 274 273 272 271 271 270 270 269 269
277 277 278 278 278 278 278 279 279 280 280 281 281 280 280 281 281 280 280 280 280 280 281 282 283 283 282 281 280 278 277 276 275 274 274 273 272 271 271 271 270 270 269 268
277 277 278 278 279 280 281 281 281 281 281 282 282 282 281 281 280 280 280 280 282 283 283 283 282 280 280 278 278 277 275 275 274 273 272 271 271 270 270 270 269 269 268 267
278 278 279 279 279 280 281 282 283 283 282 282 283 283 281 280 280 280 282 284 285 285 285 284 282 281 280 279 278 277 277 276 274 272 271 271 270 270 270 269 268 267 266 266
280 281 281 282 283 284 284 283 283 284 285 284 283 282 281 281 283 285 286 288 289 288 286 284 284 284 282 281 280 279 277 274 273 273 273 272 271 270 269 268 267 266 265 264
282 282 283 283 283 284 284 285 285 286 284 283 282 282 284 285 287 289 291 291 288 287 286 285 284 284 283 281 281 279 277 275 275 275 274 272 271 269 268 268 266 265 263 262
281 282 282 282 283 283 283 283 283 283 283 283 283 284 286 288 289 290 289 287 286 287 286 284 283 284 283 284 281 279 276 275 275 275 273 272 270 268 267 266 265 263 263 262
281 282 283 282 281 281 282 282 282 283 284 284 284 286 288 288 288 287 286 286 286 285 284 283 284 282 282 283 282 279 275 273 273 273 273 270 268 266 266 265 263 261 260 260
285 284 281 280 280 281 282 282 282 283 283 284 286 287 286 285 286 285 284 284 284 285 285 285 284 282 282 283 283 280 277 276 274 272 269 267 267 267 267 264 262 260 259 258
288 285 284 284 284 283 283 282 282 283 283 284 284 284 285 285 284 284 283 283 285 286 286 285 283 282 282 281 279 279 280 278 275 271 268 267 268 268 267 263 259 258 257 255